sat.trackr.live / text

‹ back to catalog

STARLINK-3253

NORAD 51136 · 2022-005AJ

PAYLOAD ACTIVE UNKNOWN

§ Identity

Operator
Country
US
Launch date
2022-01-19
Launch site
AFETR
Launch vehicle
Mass (kg)
RCS (m²)

Purposes: comms

External: N2YO · Heavens-Above · Gunter

§ Orbital elements

Epoch: 2026-05-24T18:03:58.432896Z

Period
95.44 min
Inclination
53.2132°
Eccentricity
0.0001245
Mean motion
15.08823908 rev/d
Perigee alt
538.9 km
Apogee alt
540.7 km
Semi-major
6,917.9 km
B*
6.7259e-5
RAAN
317.4561°
Arg perigee
101.2735°
Mean anomaly
258.8397°
Rev number
24,021

§ Raw data

STARLINK-32531 51136U 22005AJ  26144.75275964  .00000782  00000+0  67259-4 0  99962 51136  53.2132 317.4561 0001245 101.2735 258.8397 15.08823908240217

JSON: /api/v1/satellites/51136 · /tle

For live sub-satellite position, see the globe view (requires WebGL).

§ Visibility from observer

Set your observer location to see the next 7 days of passes ≥ 10°. The values pass through the URL so the page stays shareable.

No JS? Fill the form by hand. The geolocation button needs JavaScript.